Location: Wapato
(46.4478°N, 120.4212°W)
Time: 13:56:06
(UTC+00:00)

SR - All Passes

Search period start: 13 May 2026 00:00
Search period end: 23 May 2026 00:00
Orbit: 568 x 852 km, 66.7° (Epoch: 12 May)

Date Brightness Start Highest point End Pass type
(mag) Time Alt. Az. Time Alt. Az. Time Alt. Az.
13 May - 00:14:03 10° NNW 00:19:47 80° NE 00:25:34 10° SE daylight
13 May - 01:56:58 10° WNW 02:00:54 19° WSW 02:04:49 10° SSW daylight
13 May - 14:44:14 10° SSE 14:48:13 27° ESE 14:52:29 10° NE daylight
13 May - 16:24:53 10° SW 16:29:35 49° NW 16:34:45 10° NNE daylight
13 May - 18:09:56 10° WNW 18:12:41 14° NNW 18:15:32 10° N daylight
13 May - 21:38:19 10° N 21:41:18 14° NNE 21:44:19 10° ENE daylight
13 May - 23:19:02 10° NNW 23:24:28 44° NE 23:29:59 10° ESE daylight
14 May - 01:00:54 10° NW 01:06:09 38° WSW 01:11:25 10° S daylight
14 May - 13:51:52 10° ESE 13:53:39 12° ESE 13:55:30 10° E daylight
14 May - 15:29:32 10° SSW 15:34:21 85° ESE 15:39:39 10° NE daylight
14 May - 17:12:56 10° W 17:16:48 21° NW 17:20:54 10° NNE daylight
14 May - 20:44:12 10° N 20:45:12 10° NNE 20:46:12 10° NNE daylight
14 May - 22:24:09 10° NNW 22:28:54 27° NE 22:33:44 10° E daylight
15 May - 00:05:28 10° NW 00:11:11 75° WSW 00:16:56 10° SSE daylight
15 May - 01:49:32 10° WNW 01:51:59 13° WSW 01:54:27 10° SW daylight
15 May - 14:34:57 10° S 14:39:23 40° ESE 14:44:14 10° NE daylight
15 May - 16:16:36 10° WSW 16:21:08 36° NW 16:26:04 10° NNE daylight
15 May - 18:02:32 10° NW 18:04:32 12° NNW 18:06:35 10° N daylight
15 May - 21:29:25 10° N 21:33:07 17° NNE 21:36:53 10° ENE daylight
15 May - 23:10:20 10° NNW 23:15:59 60° NE 23:21:42 10° SE daylight
16 May - 00:52:39 10° NW 00:57:22 27° WSW 01:02:06 10° SSW daylight
16 May - 13:41:25 10° SSE 13:44:43 19° ESE 13:48:11 10° ENE daylight
16 May - 15:20:55 10° SW 15:25:45 68° NW 15:31:04 10° NNE daylight
16 May - 17:05:09 10° WNW 17:08:32 17° NNW 17:12:05 10° N daylight
16 May - 20:34:54 10° N 20:37:06 12° NNE 20:39:21 10° NE daylight
16 May - 22:15:23 10° NNW 22:20:33 34° NE 22:25:47 10° ESE daylight
16 May - 23:56:57 10° NW 00:02:32 53° WSW 00:08:06 10° SSE daylight
17 May - 14:25:55 10° SSW 14:30:38 59° ESE 14:35:50 10° NE daylight
17 May - 16:08:29 10° W 16:12:45 27° NW 16:17:20 10° NNE daylight
17 May - 17:55:33 10° NNW 17:56:26 10° NNW 17:57:19 10° N daylight
17 May - 21:20:34 10° NNW 21:24:53 22° NE 21:29:15 10° E daylight
17 May - 23:01:41 10° NNW 23:07:27 82° ENE 23:13:14 10° SE daylight
18 May - 00:44:40 10° WNW 00:48:32 19° WSW 00:52:24 10° SSW daylight
18 May - 13:31:46 10° SSE 13:35:49 28° ESE 13:40:11 10° NE daylight
18 May - 15:12:28 10° SW 15:17:13 48° NW 15:22:25 10° NNE daylight
18 May - 16:57:33 10° WNW 17:00:21 14° NNW 17:03:13 10° N daylight
18 May - 20:25:54 10° N 20:28:58 15° NNE 20:32:04 10° ENE daylight
18 May - 22:06:39 10° NNW 22:12:08 45° NE 22:17:39 10° ESE daylight
18 May - 23:48:34 10° NW 23:53:49 37° WSW 23:59:02 10° S daylight
19 May - 12:39:15 10° SE 12:41:15 12° ESE 12:43:19 10° ENE daylight
19 May - 14:17:05 10° SSW 14:21:58 86° ESE 14:27:19 10° NE daylight
19 May - 16:00:32 10° W 16:04:26 21° NW 16:08:34 10° NNE daylight
19 May - 19:31:40 10° N 19:32:51 11° NNE 19:34:04 10° NNE daylight
19 May - 21:11:46 10° NNW 21:16:34 27° NE 21:21:26 10° E daylight
19 May - 22:53:07 10° NW 22:58:50 73° WSW 23:04:34 10° SSE daylight
20 May - 00:37:17 10° WNW 00:39:37 13° WSW 00:41:57 10° SW daylight
20 May - 13:22:28 10° S 13:27:00 41° ESE 13:31:54 10° NE daylight
20 May - 15:04:12 10° WSW 15:08:46 35° NW 15:13:43 10° NNE daylight
20 May - 16:50:08 10° NW 16:52:11 12° NNW 16:54:17 10° N daylight
20 May - 20:17:00 10° N 20:20:47 18° NNE 20:24:36 10° ENE daylight
20 May - 21:57:57 10° NNW 22:03:39 61° NE 22:09:21 10° SE daylight
20 May - 23:40:19 10° NW 23:45:00 26° WSW 23:49:41 10° SSW daylight
21 May - 12:28:54 10° SSE 12:32:18 19° ESE 12:35:54 10° ENE daylight
21 May - 14:08:28 10° SW 14:13:22 67° NW 14:18:43 10° NNE daylight
21 May - 15:52:45 10° WNW 15:56:11 17° NNW 15:59:45 10° N daylight
21 May - 19:22:27 10° N 19:24:45 12° NNE 19:27:06 10° NE daylight
21 May - 21:03:00 10° NNW 21:08:12 35° NE 21:13:27 10° ESE daylight
21 May - 22:44:36 10° NW 22:50:11 52° WSW 22:55:43 10° S daylight
22 May - 13:13:27 10° SSW 13:18:14 61° ESE 13:23:30 10° NE daylight
22 May - 14:56:05 10° W 15:00:23 27° NW 15:05:00 10° NNE daylight
22 May - 16:43:05 10° NNW 16:44:05 10° NNW 16:45:05 10° N daylight
22 May - 20:08:10 10° NNW 20:12:32 22° NE 20:16:56 10° E daylight
22 May - 21:49:19 10° NNW 21:55:05 83° NE 22:00:52 10° SE daylight
22 May - 23:32:20 10° WNW 23:36:09 18° WSW 23:39:57 10° SSW daylight
